Waarnemingen

Advertentie
Mijn weer
San Clemente, Spanje (8256): temperatuur & dauwpunt: 14.01.2021 02:00:00 - 20.01.2021 02:00:00 (CET)San Clemente, Spanje (8256): windsnelheid & windstoten: 14.01.2021 02:00:00 - 20.01.2021 02:00:00 (CET)San Clemente, Spanje (8256): windrichting: 14.01.2021 02:00:00 - 20.01.2021 02:00:00 (CET)San Clemente, Spanje (8256): luchtdruk: 14.01.2021 02:00:00 - 20.01.2021 02:00:00 (CET)San Clemente, Spanje (8256): zicht: 14.01.2021 02:00:00 - 20.01.2021 02:00:00 (CET)San Clemente, Spanje (8256): Zonneschijnduur: 14.01.2021 02:00:00 - 20.01.2021 02:00:00 (CET)San Clemente, Spanje (8256): neerslag: 14.01.2021 02:00:00 - 20.01.2021 02:00:00 (CET)
Datum & Tijd tt [°C] td [°C] ff [km/u] ff [kn] fx [km/u] fx [kn] dd ppp [hPa] vv [km] sd [min] rr [mm]
20.01.2021 02:00:00 - - - - - - - - - - -
20.01.2021 01:00:00 -4,1 -5,4 11 6 16 8 O 1024,2 9 0 -
20.01.2021 00:00:00 -4,2 -5,7 11 6 16 9 O 1025,0 9 0 0,0
19.01.2021 23:00:00 -2,8 -4,2 6 4 14 8 OZO 1025,0 8 0 0,0
19.01.2021 22:00:00 -2,4 -3,9 8 4 12 7 O 1025,2 9 0 0,0
19.01.2021 21:00:00 -1,1 -2,7 10 5 13 7 O 1025,4 11 0 0,0
19.01.2021 20:00:00 -0,9 -2,7 5 3 9 5 ZO 1025,7 11 0 0,0
19.01.2021 19:00:00 0,3 -1,2 - - - - - 1025,4 12 0 -
19.01.2021 18:00:00 1,4 -1,4 5 3 12 7 OZO 1025,1 15 0 0,0
19.01.2021 17:00:00 4,3 0,0 7 4 13 7 O 1024,2 15 10 0,0
19.01.2021 16:00:00 4,0 0,0 10 6 15 8 O 1024,7 16 34 0,0
19.01.2021 15:00:00 4,4 0,2 7 4 11 6 O 1024,9 19 60 0,0
19.01.2021 14:00:00 3,9 -0,7 9 5 13 7 O 1026,1 10 60 0,0
19.01.2021 13:00:00 2,2 -1,7 10 5 14 8 O 1027,7 13 60 -
19.01.2021 12:00:00 0,6 -2,7 10 5 16 9 O 1029,2 20 60 0,0
19.01.2021 11:00:00 -1,5 -4,5 11 6 17 9 O 1030,4 17 60 0,0
19.01.2021 10:00:00 -3,8 -5,7 11 6 17 9 O 1030,8 17 60 0,0
19.01.2021 09:00:00 -5,9 -6,7 8 5 14 8 O 1031,5 15 12 0,0
19.01.2021 08:00:00 -6,5 -7,5 9 5 13 7 O 1031,8 15 0 0,0
19.01.2021 07:00:00 -6,5 -7,5 9 5 16 8 O 1031,7 15 0 -
19.01.2021 06:00:00 -6,6 -7,5 10 5 16 9 O 1031,7 13 0 0,0
19.01.2021 05:00:00 -5,8 -6,7 8 4 16 8 O 1031,6 13 0 0,0
19.01.2021 04:00:00 -5,8 -6,7 11 6 16 8 O 1032,1 12 0 0,0
19.01.2021 03:00:00 -4,3 -5,1 10 6 16 9 OZO 1031,9 9 0 0,0
19.01.2021 02:00:00 -3,6 -4,5 9 5 15 8 OZO 1031,8 8 0 0,0
19.01.2021 01:00:00 -3,3 -4,2 10 6 15 8 O 1032,0 9 0 -
19.01.2021 00:00:00 -2,8 -3,9 10 5 12 7 O 1031,9 9 0 0,0
18.01.2021 23:00:00 -2,2 -3,3 9 5 13 7 OZO 1031,8 14 0 0,0
18.01.2021 22:00:00 -1,7 -2,7 9 5 12 7 OZO 1031,6 18 0 0,0
18.01.2021 21:00:00 -2,3 -3,6 5 3 12 6 OZO 1031,7 13 0 0,0
18.01.2021 20:00:00 -1,1 -2,7 9 5 12 7 O 1031,2 15 0 0,0
18.01.2021 19:00:00 0,1 -1,7 11 6 15 8 O 1030,2 15 0 -
18.01.2021 18:00:00 2,5 -1,0 6 4 - - O 1029,2 17 0 0,0
18.01.2021 17:00:00 5,3 0,2 4 2 6 3 O 1027,9 17 7 0,0
18.01.2021 16:00:00 5,5 0,2 4 2 8 5 O 1028,0 17 34 0,0
18.01.2021 15:00:00 4,9 -0,3 3 2 - - O 1028,5 20 60 0,0
18.01.2021 14:00:00 5,3 0,0 5 3 10 5 O 1028,8 20 60 0,0
18.01.2021 13:00:00 3,4 -1,0 8 5 13 7 O 1030,3 20 60 -
18.01.2021 12:00:00 2,1 -2,2 9 5 14 8 O 1031,5 20 60 0,0
18.01.2021 11:00:00 0,3 -3,9 8 4 12 6 O 1032,3 14 60 0,0
18.01.2021 10:00:00 -2,0 -5,1 7 4 13 7 O 1032,7 17 60 0,0
18.01.2021 09:00:00 -5,6 -7,5 6 4 11 6 O 1033,3 9 12 0,0
18.01.2021 08:00:00 -5,4 -7,1 7 4 12 6 OZO 1032,9 17 0 0,0
18.01.2021 07:00:00 -4,2 -6,0 6 3 14 8 O 1032,2 19 0 -
18.01.2021 06:00:00 -5,1 -7,1 15 8 22 12 O 1032,2 18 0 0,0
18.01.2021 05:00:00 -5,0 -6,7 11 6 14 8 O 1032,1 16 0 0,0
18.01.2021 04:00:00 -5,4 -7,5 8 4 14 8 O 1032,6 12 0 0,0
18.01.2021 03:00:00 -4,2 -6,7 8 4 13 7 O 1032,4 12 0 0,0
18.01.2021 02:00:00 -4,0 -6,4 4 2 21 11 O 1032,2 12 0 0,0
18.01.2021 01:00:00 -4,9 -6,7 14 8 17 9 O 1033,0 11 0 -
18.01.2021 00:00:00 -4,5 -6,0 8 4 10 6 O 1033,2 9 0 0,0
17.01.2021 23:00:00 -3,7 -5,4 6 3 7 4 NO 1033,0 11 0 0,0
17.01.2021 22:00:00 -3,5 -5,7 5 3 9 5 N 1033,0 8 0 0,0
17.01.2021 21:00:00 -2,2 -4,5 3 2 - - NNO 1032,3 8 0 0,0
17.01.2021 20:00:00 -0,8 -3,3 6 3 15 8 NNO 1031,9 9 0 0,0
17.01.2021 19:00:00 0,6 -2,5 13 7 18 10 N 1030,9 10 0 -
17.01.2021 18:00:00 2,1 -2,2 18 10 22 12 N 1030,3 12 0 0,0
17.01.2021 17:00:00 2,5 -2,0 18 10 22 12 N 1030,1 11 5 0,0
17.01.2021 16:00:00 4,5 -2,7 15 8 21 11 N 1029,2 14 35 0,0
17.01.2021 15:00:00 3,3 -2,7 11 6 19 10 N 1029,8 13 60 0,0
17.01.2021 14:00:00 3,6 -3,6 17 9 21 11 N 1030,6 17 60 0,0
17.01.2021 13:00:00 2,8 -5,1 11 6 16 9 N 1032,0 14 60 -
17.01.2021 12:00:00 1,8 -5,7 6 3 10 5 N 1033,0 19 60 0,0
17.01.2021 11:00:00 -1,1 -7,8 4 2 8 5 O 1034,1 20 60 0,0
17.01.2021 10:00:00 -3,2 -9,0 5 3 11 6 O 1034,5 4,9 60 0,0
17.01.2021 09:00:00 -6,6 -10,3 10 5 13 7 O 1035,1 17 11 0,0
17.01.2021 08:00:00 -7,3 -9,9 10 6 12 7 O 1035,0 16 0 0,0
17.01.2021 07:00:00 -7,6 -10,3 10 5 15 8 O 1034,7 16 0 -
17.01.2021 06:00:00 -7,3 -10,3 10 5 14 8 O 1034,7 17 0 0,0
17.01.2021 05:00:00 -7,1 -9,9 4 2 - - O 1034,9 13 0 0,0
17.01.2021 04:00:00 -6,5 -8,6 6 3 - - ONO 1034,8 13 0 0,0
17.01.2021 03:00:00 -6,1 -8,6 8 5 10 6 ONO 1034,5 15 0 0,0
17.01.2021 02:00:00 -5,1 -7,1 - - - - - 1034,7 10 0 0,0
17.01.2021 01:00:00 -5,3 -7,8 8 5 11 6 O 1035,2 14 0 -
17.01.2021 00:00:00 -3,8 -6,7 7 4 - - O 1034,7 11 0 0,0
16.01.2021 23:00:00 -3,5 -5,4 15 8 - - N 1034,3 12 0 0,0
16.01.2021 22:00:00 -2,6 -6,0 - - - - - 1033,8 11 0 0,0
16.01.2021 21:00:00 0,0 -3,6 13 7 18 10 NNO 1032,3 12 0 0,0
16.01.2021 20:00:00 0,0 -3,3 16 8 19 10 N 1032,1 13 0 0,0
16.01.2021 19:00:00 0,9 -2,7 16 8 17 9 N 1031,4 13 0 -
16.01.2021 18:00:00 1,9 -2,7 11 6 13 7 N 1030,7 14 0 0,0
16.01.2021 17:00:00 3,8 -2,7 11 6 18 10 N 1029,7 13 3 0,0
16.01.2021 16:00:00 3,4 -2,2 9 5 23 13 N 1030,0 12 35 0,0
16.01.2021 15:00:00 2,6 -1,2 16 8 25 14 N 1030,0 11 60 0,0
16.01.2021 14:00:00 2,9 -2,0 19 11 31 17 N 1029,9 11 60 0,0
16.01.2021 13:00:00 2,6 -2,2 19 10 27 14 NNO 1030,5 10 60 -
16.01.2021 12:00:00 1,1 -3,3 12 6 18 10 N 1031,9 9 60 0,0
16.01.2021 11:00:00 0,5 -4,2 10 5 15 8 NNW 1031,6 10 60 0,0
16.01.2021 10:00:00 -1,0 -5,4 7 4 22 12 WNW 1031,0 12 60 0,0
16.01.2021 09:00:00 -0,6 -5,4 5 3 - - WNW 1030,1 20 12 0,0
16.01.2021 08:00:00 -0,9 -5,4 5 3 30 16 O 1029,2 17 0 0,0
16.01.2021 07:00:00 -0,3 -4,8 18 10 27 14 NO 1028,6 19 0 -
16.01.2021 06:00:00 -4,7 -6,4 9 5 25 14 WNW 1030,3 14 0 0,0
16.01.2021 05:00:00 -5,9 -7,1 13 7 27 15 N 1031,0 4,3 0 0,0
16.01.2021 04:00:00 -4,2 -5,4 21 11 29 16 NNO 1030,7 5 0 0,0
16.01.2021 03:00:00 -3,8 -4,8 21 11 25 14 N 1030,6 5 0 0,0
16.01.2021 02:00:00 -3,3 -4,5 20 11 24 13 N 1030,3 6 0 0,0
16.01.2021 01:00:00 -3,3 -4,8 18 10 24 13 N 1030,6 7 0 -
16.01.2021 00:00:00 -2,1 -3,6 20 11 24 13 NNO 1030,4 8 0 0,0
15.01.2021 23:00:00 -2,1 -3,6 21 11 24 13 N 1030,4 8 0 0,0
15.01.2021 22:00:00 -1,5 -3,3 18 10 22 12 N 1030,1 10 0 0,0
15.01.2021 21:00:00 -1,2 -2,7 16 9 24 13 N 1030,0 11 0 0,0
15.01.2021 20:00:00 -0,7 -2,5 21 12 29 16 N 1029,8 10 0 0,0
15.01.2021 19:00:00 0,0 -1,7 22 12 27 15 N 1028,9 10 0 -
15.01.2021 18:00:00 1,4 -1,4 21 12 26 14 N 1028,3 15 0 0,0
15.01.2021 17:00:00 2,8 -1,0 20 11 26 14 N 1027,6 18 0 0,0
15.01.2021 16:00:00 3,9 -0,7 19 10 26 14 N 1027,2 19 34 0,0
15.01.2021 15:00:00 3,8 -0,7 18 10 26 14 N 1027,3 20 60 0,0
15.01.2021 14:00:00 3,3 -1,2 20 11 27 14 N 1027,9 13 60 0,0
15.01.2021 13:00:00 2,6 -1,7 16 9 23 13 N 1029,0 13 60 -
15.01.2021 12:00:00 0,4 -3,3 11 6 19 10 N 1030,6 12 60 0,0
15.01.2021 11:00:00 -3,5 -6,0 7 4 18 10 N 1032,0 7 60 0,0
15.01.2021 10:00:00 -6,0 -7,8 11 6 19 11 N 1032,6 5 60 0,0
15.01.2021 09:00:00 -8,5 -9,9 15 8 25 13 N 1032,7 4,0 13 0,0
15.01.2021 08:00:00 -8,0 -9,0 21 11 22 12 N 1032,3 3,9 0 0,0
15.01.2021 07:00:00 -7,4 -8,6 16 9 34 18 N 1031,9 4,7 0 -
15.01.2021 06:00:00 -7,0 -8,2 22 12 28 15 N 1031,5 5 0 0,0
15.01.2021 05:00:00 -6,4 -7,8 16 9 24 13 N 1031,4 6 0 0,0
15.01.2021 04:00:00 -6,6 -7,8 17 9 24 13 N 1031,9 6 0 0,0
15.01.2021 03:00:00 -6,4 -7,8 14 8 20 11 N 1032,0 6 0 0,0
15.01.2021 02:00:00 -6,3 -7,8 8 5 12 6 NNO 1031,7 9 0 0,0
15.01.2021 01:00:00 -6,3 -8,2 4 2 9 5 NNO 1032,2 7 0 -
15.01.2021 00:00:00 -5,4 -7,1 4 2 11 6 NNW 1032,0 7 0 0,0
14.01.2021 23:00:00 -5,2 -7,1 10 5 13 7 N 1031,6 10 0 0,0
14.01.2021 22:00:00 -4,5 -6,4 9 5 12 6 NNW 1031,0 10 0 0,0
14.01.2021 21:00:00 -3,4 -5,7 6 4 18 10 NW 1030,3 8 0 0,0
14.01.2021 20:00:00 -2,4 -4,8 12 7 22 12 N 1029,5 9 0 0,0
14.01.2021 19:00:00 -0,6 -3,9 18 10 23 12 N 1028,3 10 0 -
14.01.2021 18:00:00 0,1 -3,0 15 8 19 10 N 1027,8 10 0 0,0
14.01.2021 17:00:00 1,4 -2,5 17 9 22 12 N 1027,4 11 0 0,0
14.01.2021 16:00:00 1,9 -2,7 19 10 31 17 N 1027,0 12 33 0,0
14.01.2021 15:00:00 2,1 -2,7 26 14 30 16 N 1026,8 17 60 0,0
14.01.2021 14:00:00 1,6 -2,5 23 13 28 15 N 1027,2 12 60 0,0
14.01.2021 13:00:00 0,2 -3,6 21 12 29 16 N 1028,9 9 60 -
14.01.2021 12:00:00 -2,4 -5,7 24 13 29 16 N 1030,7 9 60 0,0
14.01.2021 11:00:00 -4,4 -7,1 15 8 21 11 N 1031,7 9 60 0,0
14.01.2021 10:00:00 -5,3 -7,8 12 7 20 11 N 1031,9 9 59 0,0
14.01.2021 09:00:00 -7,2 -8,6 14 8 19 10 N 1032,3 10 14 0,0
14.01.2021 08:00:00 -8,4 -9,9 8 4 14 8 NNO 1032,5 9 0 0,0
14.01.2021 07:00:00 -7,9 -9,9 11 6 18 10 N 1032,2 8 0 -
14.01.2021 06:00:00 -6,2 -8,2 13 7 22 12 N 1031,7 8 0 0,0
14.01.2021 05:00:00 -5,7 -7,1 19 10 23 12 N 1031,6 7 0 0,0
14.01.2021 04:00:00 -8,5 -9,9 4 2 8 4 NO 1033,2 6 0 0,0
14.01.2021 03:00:00 -8,0 -9,4 5 3 10 5 ONO 1033,3 9 0 0,0
14.01.2021 02:00:00 -8,1 -9,9 3 1 5 3 NO 1033,4 9 0 0,0

tt = temperatuur
td = dauwpunt
ff = windsnelheid
fx = windstoten
dd = windrichting
ppp = luchtdruk
vv = zicht
sd = Zonneschijnduur
rr = neerslag

Weerstations in de omgeving